Terminal Aerodrome Forecast
Issued by NWS Jackson, MS

Home | Current Version | Previous Version | Text Only | Print | Product List | Glossary On
Versions: 1 2 3 4 5 6 7 8 9 10
000
FTUS44 KJAN 271100 RRA
TAFHBG
TAF
KHBG 271144Z 2712/2812 14008KT P6SM VCSH SCT008 BKN040
     FM271800 15008KT 4SM SHRA BR VCTS BKN008 OVC015CB
     FM272200 17008KT 2SM +SHRA BR VCTS OVC007CB=

USA.gov is the U.S. government's official web portal to all federal, state and local government web resources and services.